Wind_Speed
44 43 41 40 38 36 34 32 30 28 27 24 23 23 22 21 20 21 22 22 23 25 26 26 27 27 29 33 35 37 38 39 40 41 42 40 37 34
48 47 46 44 42 40 37 34 32 30 29 27 25 24 23 22 21 21 21 22 23 24 25 26 26 27 27 29 31 32 34 36 36 36 36 35 34 32
53 52 50 49 47 44 41 37 34 32 30 29 27 26 25 23 21 21 21 21 22 23 24 25 26 26 26 25 25 26 27 29 29 29 30 30 31 31
60 57 55 53 51 47 44 41 37 34 32 30 29 27 25 23 22 21 21 21 22 23 24 24 25 25 25 25 24 24 24 24 25 26 28 30 30 31
65 63 60 57 55 52 48 44 40 37 34 32 30 28 26 24 22 21 20 20 21 23 25 25 25 24 24 23 23 22 23 24 25 27 28 28 29 29
70 68 64 61 58 56 52 48 44 40 35 33 31 29 27 24 22 21 20 19 20 22 25 26 26 25 24 23 23 23 23 24 24 24 25 26 27 28
74 71 69 65 62 59 55 52 48 43 38 34 32 30 27 26 24 22 20 19 20 21 24 25 26 26 25 24 23 23 23 22 23 23 24 24 24 25
76 75 73 69 65 61 58 54 50 45 40 37 34 31 28 26 24 22 20 19 20 21 23 25 26 26 26 26 25 24 23 23 22 23 23 22 22 22
72 76 76 72 67 63 59 55 52 47 43 39 35 32 30 27 25 22 20 20 20 22 23 24 25 25 26 26 25 25 24 24 24 24 24 23 22 21
57 67 74 74 69 64 59 56 53 48 44 41 37 34 31 28 25 22 20 20 20 21 22 23 24 24 25 25 25 25 25 25 26 25 25 23 22 21
42 52 62 70 69 65 60 56 52 49 46 42 39 36 32 28 25 22 19 18 19 20 21 22 22 23 24 24 25 25 25 25 25 24 24 23 22 21
34 40 49 59 64 64 60 56 52 49 46 43 39 36 32 29 25 22 19 19 19 20 20 21 21 21 22 22 22 23 23 23 24 24 23 21 20 19
29 32 38 48 56 60 59 55 52 50 46 43 40 37 33 29 26 23 21 20 20 21 21 22 21 20 20 19 19 20 21 21 21 22 20 19 17 16
26 27 32 40 50 56 56 55 52 49 46 43 40 37 34 30 26 24 22 21 21 21 21 21 21 20 18 18 18 18 19 19 18 17 16 16 15 15
24 24 27 36 46 53 54 53 52 48 45 42 39 37 35 31 28 25 23 22 22 22 22 20 19 18 17 17 17 17 17 16 16 16 16 16 15 15
23 22 24 33 43 50 53 52 50 47 45 41 39 38 36 32 29 26 24 23 22 22 21 20 18 17 17 17 17 17 17 17 17 17 16 16 15 15
23 23 24 31 42 49 51 50 49 47 45 43 41 38 36 33 30 27 25 23 22 22 21 19 17 17 17 18 18 19 19 19 18 18 17 16 16 16
22 23 25 31 42 48 50 50 48 46 44 42 41 39 37 34 30 28 26 24 23 22 21 19 18 18 19 20 20 20 21 21 20 19 18 18 18 19
21 22 25 32 43 49 50 51 47 44 42 40 40 39 38 35 32 29 26 25 23 22 22 21 20 20 21 22 22 22 22 22 21 20 20 20 21 23
20 21 25 33 43 51 50 51 48 44 42 41 40 39 38 36 34 31 28 26 25 23 23 22 22 22 22 23 23 23 23 23 23 22 23 23 25 27
19 20 23 32 42 48 50 50 48 45 43 42 40 38 37 36 34 32 29 27 26 25 24 24 23 22 23 23 24 24 25 25 25 25 25 26 28 30
16 17 20 28 35 44 48 50 49 46 44 42 40 38 37 35 34 32 30 28 27 26 25 24 23 23 24 24 25 25 25 26 26 27 28 30 31 33
15 15 17 23 30 41 45 48 46 45 42 40 39 37 35 34 33 31 30 29 28 27 26 25 24 24 24 24 25 25 26 27 28 29 31 32 34 35
Wind_Direction
239 239 239 240 240 240 241 244 250 255 259 259 261 264 269 276 281 283 278 267 256 250 247 247 248 246 244 241 239 237 237 237 236 236 234 238 241 243
239 239 239 240 240 239 239 241 244 250 256 259 260 262 266 271 278 281 280 269 257 251 247 247 248 248 246 243 240 238 237 235 233 233 234 237 237 241
238 239 239 240 240 239 239 239 241 245 251 256 259 260 263 267 274 279 278 269 257 250 247 245 243 242 240 240 239 237 236 234 231 232 232 234 237 239
237 238 239 239 239 239 239 239 240 242 247 253 256 258 259 262 270 277 276 268 256 248 244 244 240 238 237 236 236 235 233 232 232 233 234 236 238 240
235 237 237 238 239 239 239 239 239 240 244 249 253 254 255 259 265 273 275 267 255 246 242 241 239 238 239 237 236 236 236 235 236 238 239 241 243 244
233 234 235 236 237 238 238 238 238 239 241 245 248 250 251 254 260 267 271 267 255 246 241 239 239 238 240 241 240 242 242 243 244 244 244 245 246 246
233 232 233 233 234 235 236 236 237 238 239 242 244 247 248 250 255 262 266 265 256 246 240 239 238 239 241 244 246 247 247 247 248 248 247 247 246 245
234 233 233 232 232 232 232 233 234 235 237 238 240 243 244 246 250 256 261 262 254 247 242 239 238 240 242 244 245 246 248 248 247 245 244 243 243 243
236 234 232 232 230 230 229 230 232 232 233 235 237 238 240 242 245 250 255 257 251 245 240 238 237 238 240 242 244 246 245 246 245 243 241 239 240 242
238 236 233 231 229 228 226 226 228 229 230 231 232 234 235 238 241 244 249 251 249 244 239 236 236 237 239 242 242 243 243 243 242 240 237 237 239 240
239 236 233 230 228 226 224 224 224 224 225 226 228 229 231 233 235 238 243 245 243 240 237 234 233 235 237 240 241 242 242 241 239 236 235 235 236 237
238 234 231 228 226 223 221 220 219 219 220 221 223 223 225 227 228 230 234 237 237 236 235 235 233 234 235 237 238 238 238 237 236 234 232 230 230 231
234 232 227 222 221 219 217 216 215 215 216 217 218 219 219 221 222 223 227 233 234 236 236 235 234 235 235 235 234 235 235 234 233 229 226 223 222 222
229 229 225 217 214 213 212 212 212 212 213 214 215 215 215 216 217 218 222 226 228 231 234 235 235 233 231 230 230 228 228 224 221 217 215 212 211 212
228 228 223 213 208 207 207 208 208 210 211 211 211 210 211 212 213 214 217 220 223 227 231 233 231 227 223 220 219 217 213 210 206 205 206 207 211 217
226 226 219 209 203 201 201 203 204 206 208 208 207 206 207 208 209 209 211 214 220 225 227 226 225 220 214 211 208 203 199 198 198 200 206 213 222 232
221 221 215 206 198 194 194 197 200 203 205 205 204 204 204 204 205 206 208 212 217 220 221 220 214 208 204 202 199 196 196 198 202 208 215 226 239 252
216 214 210 201 193 189 189 192 196 200 202 204 204 203 202 203 204 204 205 208 211 213 214 212 206 200 198 197 197 199 202 205 211 218 228 240 252 264
209 207 203 196 190 186 186 190 193 196 199 201 202 202 201 202 204 204 204 206 208 209 209 207 204 202 200 202 206 207 212 217 223 232 241 252 262 272
204 202 198 193 188 183 183 186 187 191 196 200 200 201 202 202 204 204 203 204 206 206 207 207 206 207 208 210 213 217 223 229 236 244 253 262 270 278
196 197 198 193 188 185 182 181 183 188 193 196 198 200 201 201 202 203 203 205 206 207 209 210 211 213 216 219 222 226 231 238 246 254 262 269 275 280
188 193 195 191 191 187 183 181 182 187 191 195 197 198 199 201 202 203 205 207 209 211 213 215 218 221 224 227 231 236 241 247 253 260 267 273 277 281
186 187 190 189 188 185 183 180 182 187 191 194 197 198 199 200 202 204 207 208 211 213 215 218 222 227 231 235 239 244 250 255 260 266 271 275 279 282
Height
5752 5755 5760 5763 5767 5771 5775 5778 5780 5780 5781 5783 5784 5785 5785 5785 5785 5784 5784 5785 5786 5788 5790 5792 5794 5795 5797 5799 5801 5804 5806 5810 5814 5818 5822 5826 5830 5834
5739 5743 5748 5752 5756 5760 5764 5768 5771 5773 5774 5775 5777 5778 5778 5779 5778 5778 5778 5778 5779 5781 5783 5785 5787 5789 5791 5793 5795 5797 5799 5803 5806 5810 5814 5818 5823 5826
5725 5730 5735 5739 5744 5748 5753 5758 5761 5764 5766 5767 5769 5770 5771 5772 5772 5772 5772 5772 5773 5775 5777 5779 5781 5783 5785 5787 5789 5791 5794 5796 5800 5804 5808 5812 5815 5818
5709 5715 5721 5726 5731 5736 5741 5746 5751 5755 5757 5759 5761 5763 5764 5765 5765 5765 5765 5766 5767 5768 5770 5772 5775 5777 5780 5782 5784 5786 5789 5792 5795 5798 5802 5805 5808 5811
5691 5698 5705 5711 5717 5723 5729 5734 5740 5744 5748 5751 5752 5755 5757 5758 5758 5759 5759 5759 5760 5762 5764 5767 5769 5772 5775 5777 5780 5782 5785 5787 5790 5793 5795 5798 5801 5804
5671 5679 5687 5695 5702 5709 5716 5722 5728 5734 5738 5742 5744 5747 5749 5750 5751 5752 5752 5753 5754 5755 5758 5761 5763 5767 5770 5772 5775 5777 5779 5781 5784 5786 5789 5791 5794 5797
5650 5659 5669 5677 5686 5694 5702 5709 5716 5722 5728 5732 5735 5739 5741 5743 5745 5745 5746 5746 5747 5749 5752 5755 5758 5761 5764 5767 5769 5771 5773 5775 5777 5780 5782 5785 5787 5790
5629 5639 5650 5660 5669 5679 5687 5695 5703 5711 5717 5722 5726 5730 5733 5736 5737 5739 5739 5740 5741 5744 5746 5749 5752 5755 5758 5760 5763 5765 5767 5769 5772 5774 5777 5779 5781 5784
5609 5619 5630 5642 5652 5662 5672 5681 5690 5699 5706 5712 5717 5721 5725 5728 5730 5732 5733 5734 5735 5737 5740 5742 5745 5748 5752 5754 5756 5759 5761 5764 5766 5769 5771 5774 5776 5779
5590 5599 5611 5623 5635 5646 5657 5667 5677 5687 5695 5702 5708 5712 5717 5720 5723 5725 5726 5728 5729 5732 5734 5737 5739 5742 5745 5748 5750 5753 5755 5758 5760 5763 5766 5769 5771 5773
5574 5582 5592 5605 5619 5632 5644 5655 5665 5675 5684 5692 5698 5703 5708 5712 5715 5718 5720 5722 5724 5726 5729 5731 5734 5736 5739 5741 5744 5746 5749 5752 5754 5757 5760 5763 5766 5768
5563 5569 5577 5589 5602 5617 5630 5642 5654 5664 5673 5681 5688 5694 5700 5704 5708 5711 5714 5717 5719 5721 5723 5726 5728 5731 5733 5735 5738 5740 5743 5746 5749 5752 5755 5758 5761 5763
5554 5559 5565 5574 5588 5604 5618 5631 5642 5653 5662 5671 5679 5686 5692 5697 5701 5705 5708 5711 5714 5717 5719 5721 5723 5726 5728 5730 5732 5735 5738 5741 5744 5747 5750 5753 5756 5759
5547 5551 5556 5563 5576 5591 5606 5619 5632 5643 5653 5662 5670 5678 5684 5690 5694 5698 5701 5705 5709 5712 5714 5716 5718 5720 5722 5725 5727 5730 5733 5736 5740 5743 5746 5750 5753 5755
5540 5544 5548 5555 5566 5580 5595 5609 5622 5633 5644 5653 5662 5670 5677 5683 5687 5691 5695 5700 5703 5706 5708 5711 5713 5715 5718 5720 5723 5726 5729 5733 5736 5740 5743 5747 5749 5752
5533 5537 5541 5548 5558 5571 5586 5599 5612 5625 5635 5645 5654 5662 5669 5676 5681 5686 5690 5694 5698 5701 5703 5706 5709 5711 5713 5716 5719 5723 5726 5730 5734 5737 5741 5743 5745 5747
5527 5532 5536 5542 5552 5564 5578 5591 5604 5616 5627 5637 5647 5655 5662 5669 5675 5679 5684 5688 5692 5695 5698 5701 5704 5707 5710 5713 5716 5720 5724 5727 5731 5734 5737 5739 5741 5742
5523 5527 5532 5537 5547 5558 5571 5584 5597 5609 5620 5630 5640 5648 5656 5663 5669 5674 5678 5683 5687 5690 5694 5697 5700 5703 5707 5710 5714 5717 5721 5724 5727 5730 5732 5734 5735 5737
5520 5524 5528 5534 5543 5554 5566 5579 5591 5603 5614 5624 5634 5642 5650 5657 5663 5668 5673 5677 5682 5686 5690 5693 5697 5700 5703 5707 5710 5714 5717 5720 5722 5725 5727 5728 5729 5730
5518 5521 5526 5532 5540 5551 5562 5574 5586 5598 5609 5619 5628 5636 5644 5651 5657 5663 5668 5672 5677 5681 5685 5689 5693 5697 5700 5704 5707 5710 5712 5715 5717 5719 5720 5721 5722 5722
5516 5520 5525 5531 5538 5547 5558 5570 5582 5594 5605 5614 5623 5632 5639 5646 5652 5658 5663 5667 5672 5676 5680 5684 5688 5693 5697 5700 5702 5705 5707 5709 5711 5713 5713 5714 5714 5714
5517 5521 5525 5531 5538 5547 5557 5567 5579 5590 5601 5610 5620 5628 5635 5641 5647 5653 5658 5663 5667 5671 5675 5680 5684 5688 5691 5694 5697 5699 5702 5703 5705 5705 5706 5706 5706 5705
5517 5521 5525 5530 5537 5546 5556 5567 5577 5588 5598 5608 5616 5624 5631 5637 5643 5649 5653 5658 5663 5667 5671 5675 5679 5682 5686 5689 5691 5693 5695 5696 5697 5698 5698 5697 5697 5695